Regional Weather Roundup
Issued by NWS

Home | Current Version | Previous Version | Text Only | Print | Product List | Glossary On
Versions: 1 2 3 4 5 6 7 8 9 10 11 12 13 14 15 16 17 18 19 20 21 22 23 24 25 26 27 28 29 30 31 32 33 34 35 36 37 38 39 40 41 42 43 44 45 46 47 48 49 50
000
ASUS43 KFSD 290110
RWRSD

WEATHER ROUNDUP FOR SOUTH DAKOTA
NATIONAL WEATHER SERVICE SIOUX FALLS SD
700 PM CST FRI NOV 28 2014

NOTE: "FAIR" INDICATES FEW OR NO CLOUDS BELOW 12,000 FEET WITH NO
SIGNIFICANT WEATHER AND/OR OBSTRUCTIONS TO VISIBILITY.


SDZ001>005-009-010-012>017-290200-
NORTHWEST AND NORTH CENTRAL SOUTH DAKOTA

CITY           SKY/WX    TMP DP  RH WIND       PRES   REMARKS
BUFFALO          N/A     44  31  60 W8        29.43F
FAITH            N/A     37  27  67 S17       29.51F
MOBRIDGE       PTCLDY    23  19  85 SE13      29.51F WCI  11
$$

SDZ012>016-024>037-041>051-057-063-072>074-290200-
SOUTHWEST AND SOUTH CENTRAL SOUTH DAKOTA

CITY           SKY/WX    TMP DP  RH WIND       PRES   REMARKS
RAPID CTY ARPT PTCLDY    51  23  33 W9        29.56F
PIERRE         CLEAR     27  24  89 E9        29.55F WCI  18
CUSTER         MOCLDY    46  22  38 W13G21    29.64F
ELLSWORTH AFB  PTCLDY    52  23  31 S7        29.55F
PHILIP         MOCLDY    37  28  70 E8        29.53F
PINE RIDGE     PTCLDY    41  24  51 W6        29.62F
SPEARFISH      FAIR      55  23  28 SW20G29   29.56F
WINNER         FAIR      44  29  55 SE10      29.58F
$$

SDZ004>011-016>023-039-040-290200-
NORTHEAST SOUTH DAKOTA

CITY           SKY/WX    TMP DP  RH WIND       PRES   REMARKS
ABERDEEN       MOCLDY    17  12  80 E6        29.64F WCI   9
WATERTOWN      MOCLDY    16  14  92 E8        29.66F WCI   5
SISSETON         N/A     16  14  92 S16       29.70F WCI   1
$$

SDZ017-020-022-023-036>040-048>070-290200-
SOUTHEAST SOUTH DAKOTA

CITY           SKY/WX    TMP DP  RH WIND       PRES   REMARKS
SIOUX FALLS    PTCLDY    25  23  92 E7        29.67F WCI  17
HURON          CLEAR     26  22  84 E5        29.64S WCI  20
CHAMBERLAIN    PTCLDY    31  24  76 E5        29.59F WCI  26
MITCHELL       CLEAR     30  26  85 E7        29.65F WCI  23
YANKTON        CLEAR     30  27  86 NE8       29.65S WCI  23
$$

ABBREVIATIONS USED IN REMARKS
   TC - TEMPERATURE IN CELSIUS
  WCI - WIND CHILL INDEX
   HX - HEAT INDEX
  VSB - VISIBILITY



USA.gov is the U.S. government's official web portal to all federal, state and local government web resources and services.